Weather History for Concord, CA

Change the Weather History Date:

Thursday, April 3, 2014

  Actual Average Record
Temperature  
Mean Temperature 55 °F 57 °F  
Max Temperature 65 °F 68 °F 81 °F (2000)
Min Temperature 45 °F 46 °F 38 °F (2001)
Degree Days  
Heating Degree Days 10    
Month to date heating degree days 37  
Since 1 July heating degree days 1990  
Cooling Degree Days 0    
Month to date cooling degree days 0  
Year to date cooling degree days 0  
Growing Degree Days 4 (Base 50)    
Moisture  
Dew Point 45 °F    
Average Humidity 71    
Maximum Humidity 93    
Minimum Humidity 48    
Precipitation  
Precipitation 0.00 in - 0.45 in (2005)
Month to date precipitation 0.50  
Year to date precipitation 6.96  
Since 1 July precipitation 9.44  
Sea Level Pressure  
Sea Level Pressure 30.04 in    
Wind  
Wind Speed 6 mph (SW)    
Max Wind Speed 16 mph    
Max Gust Speed 19 mph    
Visibility 10 miles    
Events      
T = Trace of Precipitation, MM = Missing Value Source: NWS Daily Summary

Daily Weather History Graph

Daily Weather History Graph

Search for Another Location

Airport:

Trip Planner

Search our weather history database for the weather conditions in past years. The results will help you decide how hot, cold, wet, or windy it might be!

Date:

Astronomy

Apr. 03, 2014 Rise Set
Actual Time 6:50 AM PDT 7:33 PM PDT
Civil Twilight 6:23 AM PDT 7:59 PM PDT
Nautical Twilight 5:52 AM PDT 8:31 PM PDT
Astronomical Twilight 5:19 AM PDT 9:03 PM PDT
Moon 9:26 AM PDT (4/3) 11:54 PM PDT (4/3)
Length of Visible Light 13h 36m
Length of Day
12h 43m
Waxing Crescent, 18% of the Moon is Illuminated
Apr 3
Waxing Crescent
Apr 7
First Quarter
Apr 15
Full
Apr 22
Last Quarter
Apr 28
New

Hourly Weather History & Observations

Time (PDT) Temp. Windchill Dew Point Humidity Pressure Visibility Wind Dir Wind Speed Gust Speed Precip Events Conditions
12:53 AM 46.9 °F - 43.0 °F 86% 30.06 in 10.0 mi SSW 4.6 mph - N/A   Clear
1:53 AM 46.9 °F - 43.0 °F 86% 30.06 in 10.0 mi South 4.6 mph - N/A   Clear
2:53 AM 46.9 °F - 43.0 °F 86% 30.06 in 10.0 mi Calm Calm - N/A   Clear
3:53 AM 46.9 °F - 45.0 °F 93% 30.05 in 10.0 mi SSW 6.9 mph - N/A   Clear
4:53 AM 46.9 °F - 44.1 °F 90% 30.05 in 10.0 mi South 5.8 mph - N/A   Clear
5:53 AM 46.0 °F 43.9 °F 44.1 °F 93% 30.06 in 10.0 mi South 4.6 mph - N/A   Clear
6:53 AM 45.0 °F 43.5 °F 43.0 °F 93% 30.06 in 10.0 mi SW 3.5 mph - N/A   Mostly Cloudy
7:53 AM 46.0 °F - 44.1 °F 93% 30.07 in 10.0 mi Calm Calm - N/A   Mostly Cloudy
8:53 AM 50.0 °F - 46.0 °F 86% 30.08 in 10.0 mi Calm Calm - N/A   Clear
9:53 AM 53.1 °F - 46.0 °F 77% 30.08 in 10.0 mi SW 5.8 mph - N/A   Overcast
10:53 AM 57.0 °F - 46.0 °F 67% 30.08 in 10.0 mi Calm Calm - N/A   Mostly Cloudy
11:53 AM 60.1 °F - 44.1 °F 55% 30.07 in 10.0 mi East 4.6 mph - N/A   Mostly Cloudy
12:53 PM 61.0 °F - 46.9 °F 60% 30.06 in 10.0 mi Variable 5.8 mph - N/A   Partly Cloudy
1:53 PM 63.0 °F - 48.0 °F 58% 30.05 in 10.0 mi Variable 6.9 mph - N/A   Scattered Clouds
2:53 PM 64.0 °F - 46.9 °F 54% 30.03 in 10.0 mi NW 10.4 mph - N/A   Mostly Cloudy
3:53 PM 64.0 °F - 44.1 °F 48% 30.01 in 10.0 mi West 12.7 mph - N/A   Clear
4:53 PM 62.1 °F - 45.0 °F 53% 29.99 in 10.0 mi West 16.1 mph - N/A   Scattered Clouds
5:53 PM 60.1 °F - 44.1 °F 55% 29.99 in 10.0 mi West 10.4 mph - N/A   Clear
6:53 PM 55.9 °F - 44.1 °F 64% 30.00 in 10.0 mi WSW 11.5 mph - N/A   Clear
8:53 PM 53.1 °F - 45.0 °F 74% 30.01 in 10.0 mi WSW 9.2 mph - N/A   Clear
9:53 PM 53.1 °F - 44.1 °F 71% 30.02 in 10.0 mi WSW 3.5 mph - N/A   Clear
10:53 PM 52.0 °F - 45.0 °F 77% 30.02 in 10.0 mi South 3.5 mph - N/A   Clear
11:53 PM 51.1 °F - 45.0 °F 80% 30.02 in 10.0 mi SSE 4.6 mph - N/A   Clear